Weather History for Nassau, Bahamas

Change the Weather History Date:

Thursday, November 8, 2012

  Actual Average Record
Temperature  
Mean Temperature 72 °F -  
Max Temperature 75 °F 81 °F 86 °F (2001)
Min Temperature 68 °F 67 °F 64 °F (2001)
Cooling Degree Days 6    
Growing Degree Days 22 (Base 50)    
Moisture  
Dew Point 57 °F    
Average Humidity 60    
Maximum Humidity 94    
Minimum Humidity 37    
Precipitation  
Precipitation 0.00 in 0.07 in - ()
Sea Level Pressure  
Sea Level Pressure 30.01 in    
Wind  
Wind Speed 11 mph ()    
Max Wind Speed 16 mph    
Max Gust Speed -    
Visibility 6.8 miles    
Events      
Averages and records for this station are not official NWS values.
T = Trace of Precipitation, MM = Missing Value Source: Averaged Metar Reports

Daily Weather History Graph

Daily Weather History Graph

Search for Another Location

Airport:

Trip Planner

Search our weather history database for the weather conditions in past years. The results will help you decide how hot, cold, wet, or windy it might be!

Date:

Astronomy

Nov. 08, 2012 Rise Set
Actual Time 6:22 AM EST 5:24 PM EST
Civil Twilight 5:58 AM EST 5:48 PM EST
Nautical Twilight 5:30 AM EST 6:16 PM EST
Astronomical Twilight 5:03 AM EST 6:43 PM EST
Moon 12:50 AM EST (11/8) 1:33 PM EST (11/8)
Length of Visible Light 11h 50m
Length of Day
11h 02m
Waning Crescent, 33% of the Moon is Illuminated
Nov 8
Waning Crescent
Nov 13
New
Nov 20
First Quarter
Nov 28
Full
Dec 6
Last Quarter

Hourly Weather History & Observations

Time (EST) Temp. Dew Point Humidity Pressure Visibility Wind Dir Wind Speed Gust Speed Precip Events Conditions
12:00 AM 71.6 °F 57.2 °F 60% 29.94 in - North - - N/A   Partly Cloudy
1:00 AM 72 °F 63 °F 66% 29.95 in 8 mi West 16.1 mph - -   Partly Cloudy
1:00 AM 73.4 °F 62.6 °F 69% 29.94 in 6.2 mi West 16.1 mph - N/A   Scattered Clouds
3:00 AM 71.6 °F 59.0 °F 64% 29.93 in 6.2 mi West 9.2 mph - N/A   Mostly Cloudy
4:00 AM 72 °F 68 °F 85% 29.95 in 8 mi WSW 13.8 mph - -   Mostly Cloudy
4:00 AM 71.6 °F 68.0 °F 88% 29.95 in 6.2 mi WSW 13.8 mph - N/A   Mostly Cloudy
5:00 AM 69.8 °F 60.8 °F 73% 29.97 in 6.2 mi West 9.2 mph - N/A   Mostly Cloudy
6:00 AM 69.8 °F 60.8 °F 73% 29.98 in 6.2 mi West 13.8 mph - N/A   Scattered Clouds
7:00 AM 69 °F 68 °F 94% 30.00 in 8 mi WNW 13.8 mph - -   Scattered Clouds
7:00 AM 69.8 °F 68.0 °F 94% 30.00 in 6.2 mi WNW 13.8 mph - N/A   Partly Cloudy
8:00 AM 69.8 °F 51.8 °F 53% 30.01 in 6.2 mi West 11.5 mph - N/A   Partly Cloudy
9:00 AM 71.6 °F 53.6 °F 53% 30.03 in 6.2 mi WNW 11.5 mph - N/A   Partly Cloudy
10:00 AM 75 °F 54 °F 37% 30.04 in 8 mi WNW 11.5 mph - -   Scattered Clouds
10:00 AM 75.2 °F 53.6 °F 47% 30.04 in 6.2 mi WNW 11.5 mph - N/A   Partly Cloudy
11:00 AM 71.6 °F 51.8 °F 50% 30.04 in 6.2 mi West 12.7 mph - N/A   Scattered Clouds
12:00 PM 71.6 °F 53.6 °F 53% 30.03 in 6.2 mi West 11.5 mph - N/A   Scattered Clouds
1:00 PM 75 °F 58 °F 45% 30.01 in 9 mi WNW 11.5 mph - -   Partly Cloudy
1:00 PM 75.2 °F 57.2 °F 53% 30.01 in 6.2 mi WNW 11.5 mph - N/A   Scattered Clouds
2:00 PM 71.6 °F 55.4 °F 57% 29.99 in 6.2 mi WNW 13.8 mph - N/A   Mostly Cloudy
3:00 PM 71.6 °F 51.8 °F 50% 30.01 in 6.2 mi West 12.7 mph - N/A   Mostly Cloudy
4:00 PM 72 °F 56 °F 48% 30.01 in 9 mi WNW 12.7 mph - -   Mostly Cloudy
4:00 PM 71.6 °F 57.2 °F 60% 30.01 in 6.2 mi WNW 12.7 mph - N/A   Mostly Cloudy
5:00 PM 68.0 °F 50.0 °F 52% 30.03 in 6.2 mi WNW 15.0 mph - N/A   Mostly Cloudy
6:00 PM 68.0 °F 50.0 °F 52% 30.04 in 6.2 mi WNW 9.2 mph - N/A   Scattered Clouds
7:00 PM 69 °F 54 °F 48% 30.06 in 9 mi NW 6.9 mph - -   Partly Cloudy
7:00 PM 69.8 °F 53.6 °F 56% 30.05 in 6.2 mi NW 6.9 mph - N/A   Scattered Clouds
8:00 PM 68.0 °F 51.8 °F 56% 30.07 in 6.2 mi NW 11.5 mph - N/A   Scattered Clouds
9:00 PM 68.0 °F 51.8 °F 56% 30.08 in 6.2 mi North 4.6 mph - N/A   Scattered Clouds
10:00 PM 68 °F 56 °F 56% 30.09 in 9 mi North 4.6 mph - -   Partly Cloudy
10:00 PM 68.0 °F 55.4 °F 64% 30.09 in 6.2 mi North 4.6 mph - N/A   Scattered Clouds
11:00 PM 68.0 °F 51.8 °F 56% 30.08 in 6.2 mi NW 4.6 mph - N/A   Partly Cloudy